STARLINK-11442, 62885

Orbit data source: Space-Track

STARLINK-11442, 62885 is a payload satellite owned by SpaceX/Seattle (US) in LEO that was launched on Tue, 04 Feb 2025 UTC via an FALCON 9 launch vehicle from the Air Force Eastern Test Range (AFETR). Payload-class satellites include a variety of spacecraft equipped with specific instruments for various scientific and technological missions. These include communications satellites like Starlink; space stations such as the ISS; scientific satellites like the Hubble; Earth observation satellites from companies like Planet Labs, Umbra, and HawkEye 360; GPS; miniature CubeSats for education and research; and military/defense satellites.

Loading next visibility...
Identifier
62885, 2025-024G
Orbit
LEO
Country
Flag of USUS
Related business
Manufacturer
SpaceX/Seattle
Mission
Operational Commercial Communications
Bus & Motor
STARLINK V2MD, Unknown motor
Mass
960 kg wet, ~910 kg dry
Launch date (UTC)
Icon of a cake. It is the launch day of the satellite!2025-02-04 (1 year ago)
Launch vehicle
FALCON 9
Launch site
Air Force Eastern Test Range (AFETR)
Object type
Payload
Rocket body
Debris
Shape & HBR
Box + 2 Pan, 18.1 m
Radar Cross Section
36.964 m², Large (>1 m²)

Expand to show TLE details & history
Last TLE update: 9 hours ago

TLE from 9 hours ago
0 STARLINK-11442
1 62885U 25024G   26035.39002410  .00232841  00000-0  17626-2 0  9991
2 62885  42.9999  21.7971 0001280 270.1735  89.8986 15.70908734 58236
Epoch: 2026-02-04T09:21Z
TLE epoch observation values (Epoch: 2026-02-04T09:21:38.082Z)
Latitude
-0.00001°
Longitude
106.83112°
Altitude
356.068 km
Speed
7.697 km/s
True Right ascension
01h 27m 11s
True Declination
0° 00' 00"
Sunlit
Object was in daylight at epoch
Visualization orbit readout
Latitude
Unknown
Longitude
Unknown
Altitude
Unknown
Speed
Unknown
Apparent Right ascension
Unknown
Apparent Declination
Unknown
Sunlit
N/A
Visualization observer readout
Local Sidereal Time
20:16:06
Azimuth
Unknown
Elevation
Unknown
Doppler factor
Unknown
Orbital elements
Apogee altitude
359.143 km
Perigee altitude
357.418 km
Semi-major axis
6,736.417 km
Eccentricity
0.00013
Inclination
42.9999°
RAAN
21.7971°
Arg. of periapsis
270.1735°
True anomaly
89.91327°
Mean anomaly
89.8986°
Eccentric anomaly
89.90593°
Mean motion
3.92554 °/min
Orbital period
91.71 mins
BSTAR
0.0017626
Loading maneuver chart data...
Computing Atmospheric mass density...
Loading historical data...
Loading historical data...
Loading historical data...
Loading historical data...
Loading historical data...
Loading historical data...
Loading historical data...

Documentation

Showing up to 5 results
|